Flag for Austria Weather past 2 weeks in Bad Radkersburg, Styria, Austria

Now
55 °F

Cool.


Feels Like: 55 °F
Forecast: 46 / 69 °F
Wind: 1 mph from Northwest

Location: Murska Sobota

Current Time: Sep 17, 2014 at 10:29:33 AM

Latest Report: Sep 17, 2014 at 9:00 AM


Visibility: N/A

Pressure: 30.12 "Hg

Humidity: 100%

Dew point: 55 °F

Location of Bad RadkersburgLocation

Historic Weather in Bad Radkersburg — Graph

°F

Bad Radkersburg temperature yesterday

Maximum temperature yesterday: 69 °F (at 2:00 PM)
Minimum temperature yesterday: 57 °F (at 11:00 PM)
Average temperature yesterday: 62 °F

Past Weeks' High & Low Weather Summary

 TemperatureHumidityPressure
High80 °F (Sep 9, 3:00 PM)100% (Sep 7, 3:00 AM)30.12 "Hg (Sep 7, 3:00 AM)
Low50 °F (Sep 17, 5:00 AM)58% (Sep 5, 2:00 PM)29.83 "Hg (Sep 13, 4:00 AM)
Average62 °F92%29.98 "Hg
* Reported Sep 2 9:00 AM — Sep 17 9:00 AM, Bad Radkersburg, Weather by CustomWeather, © 2014

Note: Actual official high and low records may vary slightly from our data, if they occured in-between our weather recording intervals... More about our weather records

Advertising

Bad Radkersburg weather history for previous 24 hours

 ConditionsComfort  
Time TempWeatherWind HumidityBarometerVisibility
9:00 AM
Sep 17
55 °FCool.1 mph100%30.12 "HgN/A
8:00 AM53 °FFog.1 mph100%30.12 "Hg0 mi
7:00 AM52 °FFog.1 mph100%30.11 "Hg0 mi
6:00 AM52 °FCool.1 mph100%30.10 "HgN/A
5:00 AM50 °FCool.No wind100%30.11 "HgN/A
4:00 AM51 °FCool.1 mph100%30.11 "HgN/A
3:00 AM52 °FCool.No wind100%30.11 "HgN/A
2:00 AM53 °FCool.1 mph99%30.11 "HgN/A
1:00 AM54 °FCool.1 mph99%30.11 "HgN/A
12:00 AM56 °FCool.1 mph99%30.11 "HgN/A
11:00 PM
Sep 16
57 °FCool.1 mph98%30.11 "HgN/A
10:00 PM59 °FCool.1 mph97%30.11 "HgN/A
9:00 PM62 °FCool.1 mph97%30.10 "HgN/A
8:00 PM62 °FFog.2 mph96%30.09 "Hg4 mi
7:00 PM63 °FMild.1 mph96%30.07 "HgN/A
6:00 PM64 °FMild.No wind93%30.06 "HgN/A
5:00 PM66 °FMild.3 mph82%30.06 "HgN/A
4:00 PM67 °FMild.1 mph81%30.06 "HgN/A
3:00 PM67 °FPartly sunny.2 mph74%30.06 "Hg6 mi
2:00 PM69 °FPartly sunny.1 mph72%30.06 "Hg6 mi
1:00 PM67 °FMild.2 mph76%30.08 "HgN/A
12:00 PM66 °FMild.1 mph79%30.08 "HgN/A
11:00 AM63 °FMild.1 mph88%30.09 "HgN/A
10:00 AM61 °FCool.1 mph93%30.09 "HgN/A
Weather by CustomWeather, © 2014

See weather overviewHow to use our weather pages